TITAN 3C TRANSTAGE DEB, 43452

Orbit data source: Space-Track

TITAN 3C TRANSTAGE DEB, 43452 is space debris in GEO originally from a launch on Sun, 09 Feb 1969 UTC launched from the Air Force Eastern Test Range (AFETR). Debris objects in space refer to the collection of defunct objects orbiting the Earth. Examples of debris include non-operational satellites, rocket bodies, and fragments generated from explosions, collisions, or faulty payload assembly.

Loading next visibility...
Identifier
43452, 1969-013K
Orbit
GEO
Last TLE update
3 months ago
Origin
Manufacturer
Martin Marietta
Mission
Spacecraft
Bus & Motor
Unknown
Mass
Unknown
Launch date (UTC)
1969-02-09 (56 years ago)
Launch vehicle
Unknown
Launch site
Air Force Eastern Test Range (AFETR)
Object type
Payload
Rocket body
Debris
Shape & HBR
Unknown
Radar Cross Section
RCS unknown

Expand to show TLE details & history

TLE from 3 months ago
0 TITAN 3C TRANSTAGE DEB
1 43452U 69013K   25014.97431602 -.00000255  00000-0  00000+0 0  9993
2 43452   0.7446 216.7049 0560994 249.3576 260.1846  1.03160322 25438
Epoch: 2025-01-14T23:23Z
Definitive object data (Epoch: 2025-01-14T23:23:00.904Z)
Latitude
0.42641°
Longitude
-105.42494°
Altitude
35,520.051 km
Speed
3.065 km/s
True Right ascension
00h 00m 00s
True Declination
0° 25' 34"
Sunlit
Object was in daylight at TLE epoch
Visualization TLE readout
Latitude
0.57933°
Longitude
-138.95567°
Altitude
36,734.57 km
Speed
2.976 km/s
Apparent Right ascension
21h 30m 58s
Apparent Declination
-5° 19' 31"
Sunlit
Object is in daylight
Visualization observer readout
Local Sidereal Time
23:50:33
Azimuth
223.743° SW
Elevation
34.527°
Doppler factor
1
Orbital elements
Apogee altitude
37,317.996 km
Perigee altitude
32,675.768 km
Semi-major axis
41,375.019 km
Eccentricity
0.0560994
Inclination
0.7446°
RAAN
216.7049°
Arg. of periapsis
249.3576°
True anomaly
253.93743°
Mean anomaly
260.1846°
Eccentric anomaly
257.05207°
Mean motion
0.25789 °/min
BSTAR
Unknown
Orbital period
1395.94 mins
Loading historical data...
43452 neighbors
Loading maneuver chart data...
Loading SW <> Apogee altitude chart data...

TITAN 3C TRANSTAGE DEB Visibility forecast

Observer location: undefined°, undefined°

Span
Click to sort rows by Start time (UTC) header in descending order
Start Az.
Max El. time (UTC)
Max El. Az.
Max El.
End time (UTC)
End Az.
1440 mins2025-04-25 16:35:15.506Z223.73° SW2025-04-26 09:54:15.506Z202.694° SW33.658°2025-04-26 16:35:15.506Z212.008° SW
|